Location: Kimberly
(42.5380°N, 114.3640°W)
Time: 22:48:46
(UTC-06:00)

Tiangong 2 - Visible Passes

Search period start: 23 August 2017 00:00
Search period end: 02 September 2017 00:00
Orbit: 390 x 394 km, 42.8° (Epoch: 23 August)

Date Brightness Start Highest point End Pass type
(mag) Time Alt. Az. Time Alt. Az. Time Alt. Az.
23 Aug 1.0 05:18:32 50° WSW 05:19:13 74° SSE 05:22:27 10° E visible
24 Aug 3.4 04:24:05 21° E 04:24:05 21° E 04:25:20 10° E visible
24 Aug 1.1 05:56:27 15° W 05:59:04 83° N 06:02:18 10° E visible
25 Aug 1.0 05:02:02 86° ENE 05:02:02 86° ENE 05:05:12 10° E visible
26 Aug 4.2 04:07:38 13° E 04:07:38 13° E 04:08:05 10° E visible
26 Aug 1.0 05:40:01 24° W 05:41:49 89° N 05:45:02 10° E visible
27 Aug 2.3 04:45:41 41° E 04:45:41 41° E 04:47:55 10° E visible
27 Aug 1.3 06:18:25 10° W 06:21:34 53° SSW 06:24:43 10° ESE visible
28 Aug 1.0 05:23:51 52° W 05:24:30 73° SSW 05:27:42 10° ESE visible
29 Aug 3.7 04:29:45 17° E 04:29:45 17° E 04:30:35 10° E visible
29 Aug 1.9 06:02:09 17° W 06:04:07 33° SSW 06:07:03 10° SE visible
30 Aug 2.4 05:08:15 31° SE 05:08:15 31° SE 05:10:11 10° ESE visible
31 Aug 2.7 05:46:58 19° SSW 05:46:58 19° SSW 05:48:57 10° SSE visible
